www.pogodaiklimat.ru

Погода и климат >> Архив погоды >> Индонезия >> Гесер


ПОГОДА в Гесере

  • Прогноз погоды в Гесере
  • Монитор погоды в Гесере

АРХИВ ПОГОДЫ в Гесере

Время (UTC), дата Ветер
(напр.,м/с)
 
Видим.   Явления Облачность Т
(С)
Тd
(С)
f
(%)
Тe
(С)
Тes
(С)
Комфортность P
(гПа)
Po
(гПа)
Тmin
(С)
Tmax
(С)
R
(мм)
R24
(мм)
S
(см)
15 9.06 Ю 5 6000 м мгла 9/5 420 м
[Cb cap Ac trans Ci sp]
+27.0 +25.8 93 +40 +40 очень
душно
1010.4 1010.2
18 9.06 Ю 3 6000 м мгла 8/4 420 м
[Cb calv Ac trans Ci sp]
+26.8 +25.6 93 +39 +39 очень
душно
1009.0 1008.8
00 10.06 штиль 0 5000 м осадки на расстоянии 9/5 420 м
[Cb cap As op Ci fib]
+27.7 +25.2 86 +40 +43 очень
душно
1010.2 1010.0 +26.0 1
03 10.06 В 1 7000 м мгла 9/4 420 м
[Cb cap Ac trans Ci fib]
+29.0 +25.3 80 +42 +49 опасность
перегрева
1009.7 1009.8
06 10.06 ЮВ 2 7000 м осадки на расстоянии 9/5 420 м
[Cb cap Ac As Ci sp]
+28.4 +25.2 83 +41 +44 опасность
перегрева
1007.6 1007.4
09 10.06 штиль 0 7000 м мгла 9/4 420 м
[Cb cap Ac trans Ci sp]
+27.6 +25.5 88 +40 +40 очень
душно
1008.0 1007.8
12 10.06 штиль 0 6000 м мгла 9/5 420 м
[Cb cap Ac As Ci sp]
+26.8 +25.7 94 +40 +40 очень
душно
1010.0 1009.8 +30.4
15 10.06 Ю 1 6000 м мгла 9/4 420 м
[Cb cap Ac trans Ci sp]
+26.4 +25.3 94 +38 +38 очень
душно
1010.8 1010.6
18 10.06 З 3 6000 м мгла 9/4 420 м
[Cb cap Ac trans Ci fib]
+26.6 +25.7 95 +39 +39 очень
душно
1009.6 1009.4
00 11.06 Ю 2 6000 м осадки на расстоянии 9/4 420 м
[Cb cap Ac As Cs]
+27.2 +25.4 90 +40 +42 очень
душно
1011.8 1011.6 +26.0
03 11.06 ЮЗ 3 6000 м осадки на расстоянии 9/5 420 м
[Cb cap Ac As Ci sp]
+28.6 +26.6 89 +44 +49 опасность
перегрева
1010.9 1010.7
06 11.06 Ю 3 6000 м мгла 9/4 420 м
[Cb cap Ac trans Ci sp]
+28.4 +26.3 88 +43 +46 опасность
перегрева
1008.8 1008.6
09 11.06 Ю 4 6000 м мгла 9/4 420 м
[Cb cap Ac trans Ci sp]
+27.6 +25.2 87 +40 +40 очень
душно
1009.6 1009.4
12 11.06 ЮВ 3 6000 м мгла 9/4 420 м
[Cb cap Ac trans Ci sp]
+26.8 +25.3 92 +39 +39 очень
душно
1011.9 1011.7 +29.8
15 11.06 Ю 2 6000 м мгла 9/4 420 м
[Cb cap Ac trans Ci sp]
+26.6 +25.4 93 +39 +39 очень
душно
1012.0 1011.9
18 11.06 Ю 2 7000 м мгла 8/4 420 м
[Cb cap Ac trans Cs]
+26.6 +25.4 93 +39 +39 очень
душно
1010.7 1010.5
00 12.06 ЮВ 2 7000 м мгла 8/3 450 м
[Cu Sc Ac trans Ci sp]
+29.2 +26.0 83 +44 +47 опасность
перегрева
1012.7 1012.5 +26.6
03 12.06 ЮВ 2 7000 м мгла 8/3 450 м
[Cu Sc Ac trans Ci sp]
+29.8 +25.8 79 +44 +52 опасность
перегрева
1012.2 1012.0
06 12.06 ЮВ 3 7000 м мгла 8/4 450 м
[Cu med, cong Ac trans Ci sp]
+30.2 +25.9 78 +45 +48 опасность
перегрева
1009.7 1009.5
09 12.06 ЮВ 2 7000 м мгла 8/4 420 м
[Cb cap Ac trans Ci sp]
+27.6 +25.2 87 +40 +40 очень
душно
1010.0 1009.8
12 12.06 ЮВ 2 6000 м мгла 6/4 420 м
[Cb calv Ac trans Ci fib]
+27.2 +25.7 92 +40 +40 очень
душно
1011.8 1011.6 +30.2
15 12.06 ЮВ 1 6000 м мгла 6/4 420 м
[Cb calv Ac trans Ci fib]
+26.9 +25.5 92 +39 +39 очень
душно
1011.5 1011.3
18 12.06 ЮВ 5 6000 м мгла 6/4 420 м
[Cb cap Ac trans Ci sp]
+26.8 +25.2 91 +39 +39 очень
душно
1009.9 1009.7
00 13.06 ЮВ 3 7000 м мгла 9/4 420 м
[Cb cap Ac trans Ci sp]
+28.0 +25.7 87 +41 +44 опасность
перегрева
1011.7 1011.5 +26.0
03 13.06 ЮВ 3 7000 м мгла 9/4 450 м
[Cu med, cong Ac trans Ci sp]
+29.6 +25.6 79 +44 +49 опасность
перегрева
1010.6 1010.4
06 13.06 ЮВ 3 7000 м мгла 8/3 450 м
[Cu med, cong Ac trans Ci sp]
+29.4 +26.0 82 +44 +48 опасность
перегрева
1008.1 1007.9
09 13.06 ЮВ 2 6000 м мгла 9/5 420 м
[Cb cap Ac As Ci sp]
+27.8 +25.5 87 +41 +41 опасность
перегрева
1008.7 1008.5
12 13.06 ЮВ 3 6000 м мгла 8/4 420 м
[Cb calv Ac trans Ci fib]
+27.2 +25.0 88 +39 +39 очень
душно
1010.9 1010.7 +30.2
15 13.06 Ю 4 6000 м мгла 9/4 420 м
[Cb calv Ac trans Ci fib]
+26.9 +25.0 89 +39 +39 очень
душно
1011.0 1010.8
18 13.06 Ю 4 6000 м мгла 8/4 420 м
[Cb cap Ac trans Ci sp]
+26.6 +24.8 90 +38 +38 очень
душно
1009.5 1009.3
00 14.06 З 3 4000 м слаб. дождь 10/6 400 м
[Cb cap Ac As Cs]
+25.6 +25.2 98 +37 +38 очень
душно
1011.2 1011.0 +25.2 5
03 14.06 ЮВ 3 4000 м слаб. дождь 10/6 400 м
[Cb cap Ac As Cs]
+26.6 +24.8 90 +38 +41 очень
душно
1010.0 1009.8 10
06 14.06 ЮВ 2 4000 м осадки на расстоянии 10/5 420 м
[Cb cap As op]
+26.9 +25.8 94 +40 +41 очень
душно
1007.9 1007.7 3
09 14.06 ЮВ 3 6000 м мгла 8/4 420 м
[Cb cap Ac trans Ci fib]
+27.6 +23.6 79 +38 +38 очень
душно
1008.3 1008.1
12 14.06 ЮВ 3 7000 м мгла 9/5 420 м
[Cb cap Ac trans Ci sp]
+26.8 +23.8 84 +37 +37 очень
душно
1010.3 1010.1 +29.8
15 14.06 ЮВ 3 7000 м мгла 9/4 420 м
[Cb cap Ac trans Ci sp]
+26.6 +24.5 88 +37 +37 очень
душно
1010.6 1010.4
18 14.06 ЮВ 3 6000 м мгла 9/5 420 м
[Cb cap Ac As Ci sp]
+26.4 +24.6 90 +37 +37 очень
душно
1009.4 1009.2
00 15.06 ЮВ 2 6000 м осадки на расстоянии 9/4 420 м
[Cb cap As op Ci fib]
+27.1 +24.9 88 +39 +41 очень
душно
1011.9 1011.7 +25.2 13
03 15.06 Ю 4 4600 м мгла 9/4 420 м
[Cb cap As op Ci fib]
+27.5 +25.1 87 +40 +44 очень
душно
1011.2 1011.0
06 15.06 ЮВ 2 5000 м осадки на расстоянии 9/5 420 м
[Cb cap Ac As Cs]
+26.0 +24.8 93 +37 +40 очень
душно
1009.2 1009.0 2
09 15.06 ЮВ 2 6000 м мгла 9/4 420 м
[Cb cap Ac As Ci sp]
+27.0 +24.0 84 +37 +37 очень
душно
1009.4 1009.2
12 15.06 ЮВ 3 6000 м мгла 9/4 420 м
[Cb cap Ac trans Ci sp]
+26.6 +25.0 91 +38 +38 очень
душно
1011.8 1011.6 +28.6
15 15.06 Ю 5 6000 м мгла 8/4 60 м
[Cb cap Ac As Ci sp]
+26.6 +24.7 89 +38 +38 очень
душно
1011.8 1011.6
18 15.06 ЮВ 3 4600 м мгла 9/4 420 м
[Cb cap Ac trans Ci fib]
+26.4 +24.3 88 +37 +37 очень
душно
1010.8 1010.5
00 16.06 Ю 4 6000 м осадки на расстоянии 9/5 420 м
[Cb cap Ac As Ci sp]
+26.8 +24.4 87 +38 +39 очень
душно
1012.5 1012.3 +25.4 2
03 16.06 Ю 6 6000 м осадки на расстоянии 9/5 420 м
[Cb cap Ac As Cs]
+27.0 +24.3 85 +38 +40 очень
душно
1011.6 1011.4
06 16.06 Ю 5 6000 м слаб. дождь 9/5 420 м
[Cb cap Ac As Cs]
+26.2 +24.6 91 +37 +38 очень
душно
1009.5 1009.3 1
09 16.06 Ю 6 6000 м мгла {дождь} 9/4 420 м
[Cb cap Ac trans Ci sp]
+26.6 +24.1 86 +37 +37 очень
душно
1010.3 1010.1 0.3
12 16.06 Ю 5 6000 м мгла {дождь} 9/5 420 м
[Cb cap Ac As Cs]
+26.4 +24.0 87 +37 +37 очень
душно
1012.4 1012.2 +28.4

 

Местоположение метеостанции Гесер (Индонезия): широта -3.80 долгота 130.83 высота над уровнем моря 3 м.

В архиве по умолчанию представлена погода в Гесере за последнюю неделю. Архивные данные за месяц целиком и за предыдущие месяцы, начиная с января 2011 года, Вы можете получить, выбрав интересующий диапазон дат из раскрывающегося списка и нажав кнопку "Ввод!".


*Определитесь, кто Вы:
робот инопланетянин человек

Внимание! Время в таблицах - всемирное. Для получения местного времени необходимо прибавить поправку, которая равна 9 ч.

Смотрите также архив погоды в соседних городах и на ближайших метеорологических станциях:

Погода в Неира (Индонезия) (131 км)
Погода в Факфаке (Индонезия) (187 км)
Погода в Амахаи (Индонезия) (222 км)
Погода в Туале (Индонезия) (298 км)
Погода в Амбоне (Индонезия) (305 км)
Погода в Аэропорту Соронг-Джефман (Индонезия) (321 км)
Погода в Каимана (Индонезия) (324 км)
Погода в Намлеа (Индонезия) (421 км)
Погода в Саумлаки (Индонезия) (468 км)
Погода в Маноквари (Индонезия) (483 км)

Пояснения к столбцам:

Ветер - указаны скорость ветра в м/с - средняя за 10 мин, порывы в срок и между сроками (в фигурных скобках) и направление, откуда дует ветер: С - северный, СВ - северо-восточный, В - восточный, ЮВ - юго-восточный, Ю - южный, ЮЗ - юго-западный, З - западный, СЗ - северо-западный.
Видимость - горизонтальная дальность видимости в метрах или километрах. При видимости от 1 до 10 км при отсутствии осадков обычно наблюдается дымка, при ухудшении видимости до 1 км и менее - туман. В сухую погоду видимость может ухудшаться дымом, пылью или мглою.
Явления - указаны атмосферные явления, наблюдавшиеся в срок или в последний час перед сроком; фигурными скобками обозначены явления, наблюдавшиеся между сроками (за 1-3 часа до срока); квадратными скобками обозначены град или гололедные отложения с указанием их диаметра в мм.
Облачность - указаны через наклонную черту общая и нижняя облачность в баллах и высота нижней границы облаков в метрах; квадратными скобками обозначены формы облаков: Ci - перистые, Cs - перисто-слоистые, Cc - перисто-кучевые, Ac - высококучевые, As - высокослоистые, Sc - слоисто-кучевые, Ns - слоисто-дождевые, Cu - кучевые, Cb - кучево-дождевые. Подробнее классификацию облаков см. в Атласе облаков (PDF).
T - Температура воздуха - температура, измеренная на высоте 2 м над землей.
Td - Температура точки росы - температура, при понижении до которой содержащийся в воздухе водяной пар достигнет насыщения.
f - Относительная влажность воздуха - влажноcть воздуха, измеренная на высоте 2 м над землей.
Te - Эффективная температура - температура, которую ощущает одетый по сезону человек в тени. Характеристика душности погоды. При расчете учитывается влияние влажности воздуха и скорости ветра на теплоощущения человека.
Tes - Эффективная температура на солнце - температура, которую ощущает человек, с поправкой на солнечный нагрев. Характеристика знойности погоды. Зависит от высоты солнца над горизонтом, облачности и скорости ветра. Ночью, в пасмурную погоду, а также при ветре 12 м/с и более поправка равна нулю.
P - Атмосферное давление - приведенное к уровню моря атмосферное давление.
Po - Атмосферное давление - измеренное на уровне метеостанции атмосферное давление.
Tmin - Минимальная температура - минимум температуры воздуха на высоте 2 м над землей.
Tmax - Максимальная температура - максимум температуры воздуха на высоте 2 м над землей.
R - Количество осадков - Количество выпавших осадков за период времени, мм. При наведении курсора мыши на число - период времени, за который выпало указанное количество осадков.
R24 - Количество осадков - Количество выпавших осадков за 24 часа, мм.
S - Снежный покров - Высота снежного покрова, см. При наведении курсора мыши на число - состояние снежного покрова и степень покрытия местности в баллах.